Location: *
(46.1333°S, 161.2167°W)
Time: 04:24:17
(UTC+00:00)

Cosmos 2360 Rocket - Pass Details

Date: 15 July 2020
Orbit: 832 x 846 km, 71.0° (Epoch: 10 August)

Event Time Altitude Azimuth Distance (km) Brightness Sun altitude
Rises 17:03:18 0° 352° (N) 3,389 5.5 -13.2°
Reaches altitude 10° 17:05:47 10° 357° (N) 2,460 4.8 -12.8°
Maximum altitude 17:11:14 51° 71° (ENE) 1,061 3.2 -11.9°
Drops below altitude 10° 17:16:43 10° 145° (SE) 2,481 4.8 -11.0°
Sets 17:19:14 0° 149° (SSE) 3,420 5.5 -10.6°
